This demonstration page uses our WeatherBlox Daily Observations layout. Learn more.

Left ArrowRight Arrow

Hourly Observations for April 5, 2016

Temp ( °F °C ) Dew Point ( °F °C ) Humidity (%) Winds ( mph kmh ) Pressure ( in mb ) Visibility ( mi km ) Precip ( " mm )
12:51 am 00:51 Clear 60 15.6 13 -10.6 16 16 N 7 11 29.96 1015 10 16 0.00 0.00
1:51 am 01:51 Clear 59 15 15 -9.4 18 18 E 3 6 29.96 1014 10 16 0.00 0.00
2:51 am 02:51 Clear 55 12.8 14 -10 20 20 SSE 3 6 29.96 1015 10 16 0.00 0.00
3:51 am 03:51 Clear 51 10.6 13 -10.6 22 22 Calm 29.98 1015 10 16 0.00 0.00
4:51 am 04:51 Clear 50 10 13 -10.6 22 22 SE 3 6 29.98 1015 10 16 0.00 0.00
5:51 am 05:51 Clear 47 8.3 12 -11.1 24 24 NE 3 6 30.00 1016 10 16 0.00 0.00
6:51 am 06:51 Sunny 52 11.1 14 -10 22 22 Calm 30.04 1017 10 16 0.00 0.00
7:51 am 07:51 Sunny 62 16.7 16 -8.9 17 17 Calm 30.06 1018 10 16 0.00 0.00
8:51 am 08:51 Sunny 67 19.4 16 -8.9 14 14 WSW 3 6 30.04 1017 10 16 0.00 0.00
9:51 am 09:51 Sunny 69 20.6 18 -7.8 14 14 WSW 6 9 30.05 1018 10 16 0.00 0.00
10:51 am 10:51 Sunny 74 23.3 18 -7.8 12 12 W 5 7 30.01 1016 10 16 0.00 0.00
11:51 am 11:51 Sunny 80 26.7 17 -8.3 9 9 W 8 13 29.98 1015 10 16 0.00 0.00
12:51 pm 12:51 Sunny 85 29.4 16 -8.9 7 7 WNW 16 26 29.93 1014 10 16 0.00 0.00
1:51 pm 13:51 Sunny 87 30.6 14 -10 6 6 NW 17 28 29.91 1013 10 16 0.00 0.00
2:51 pm 14:51 Sunny 87 30.6 14 -10 6 6 WNW 22 35 29.89 1012 10 16 0.00 0.00
3:51 pm 15:51 Sunny 87 30.6 12 -11.1 6 6 WNW 22 35 29.87 1012 10 16 0.00 0.00
4:51 pm 16:51 Sunny 85 29.4 12 -11.1 6 6 NW 15 24 29.88 1012 10 16 0.00 0.00
5:51 pm 17:51 Sunny 83 28.3 13 -10.6 7 7 NW 16 26 29.89 1012 10 16 0.00 0.00
6:51 pm 18:51 Clear 78 25.6 14 -10 9 9 NW 12 19 29.90 1013 10 16 0.00 0.00
7:51 pm 19:51 Clear 73 22.8 14 -10 10 10 WNW 8 13 29.92 1013 10 16 0.00 0.00
8:51 pm 20:51 Clear 73 22.8 14 -10 10 10 NW 15 24 29.94 1014 10 16 0.00 0.00
9:51 pm 21:51 Clear 71 21.7 15 -9.4 12 12 NW 9 15 29.97 1015 10 16 0.00 0.00
10:51 pm 22:51 Clear 69 20.6 15 -9.4 12 12 NW 12 19 29.99 1016 10 16 0.00 0.00
11:51 pm 23:51 Clear 61 16.1 15 -9.4 17 17 WNW 8 13 30.01 1016 10 16 0.00 0.00

Powered by AerisWeather